Content
SEND FEEDBACK

Daily
Averages
Monthly
Summary
United Kingdom

LONDON, ENGLAND


Home > Europe > United Kingdom > England
Elevation: 203 feet     Latitude: 51 09N     Longitude: 000 11W

WEATHER
 
SELECT A DAY
Number of Records: 292,742;   Date Range: 7/1/96 - 7/24/14
 
SHARE

PRINT THIS DATA

[ ← Previous Day ]
WEATHER ALMANAC - SEPTEMBER 1, 2013
[ Next Day → ]
[ °C ]   °F
Weather ElementAverageHighLow
Temperature58.2 °F68 °F (2:50 pm)46.4 °F (6:20 am)
Dewpoint45.4 °F50 °F (6:50 pm)41 °F (12:50 am)
Humidity63.9 %87 % (6:20 am)43 % (2:50 pm)
Barometer30.41 in30.45 in (7:20 am)30.36 in (5:20 pm)
Wind Speed6.3 mph11.5 mph (2:50 pm)
Weather ElementAverage
Wind DirectionSW (227.9 °)

Weather ElementTotal
Precipitation---
Heating Degree Days7.8 (Base 65)
Growing Degree Days7.2 (Base 50)
Averaged from 47 records on September 1, 2013
WEATHER CONDITIONS BREAKOUT
WIND DIRECTION BREAKOUT
WEATHER BY HOUR - SEPTEMBER 1, 2013
[ °C ]   °F
Local TimeTemperatureDewpointHumidityBarometerVisibilityWind DirectionWind SpeedGust SpeedPrecipitationEventsConditions
12:50 AM51.8 °F41.0 °F67 %30.42 inVariable3.5 mphClear
1:20 AM53.6 °F41.0 °F62 %30.42 inNNW (330°)4.6 mphClear
1:50 AM53.6 °F41.0 °F62 %30.42 inNW (320°)4.6 mphClear
2:20 AM51.8 °F41.0 °F67 %30.42 inVariable3.5 mphClear
2:50 AM50.0 °F42.8 °F76 %30.42 inVariable3.5 mphClear
3:20 AM50.0 °F42.8 °F76 %30.42 inWSW (250°)3.5 mphClear
3:50 AM50.0 °F41.0 °F71 %30.42 inVariable3.5 mphClear
4:20 AM48.2 °F41.0 °F76 %30.42 inWest (260°)3.5 mphClear
4:50 AM48.2 °F42.8 °F82 %30.42 inVariable3.5 mphClear
5:20 AM48.2 °F42.8 °F82 %30.42 inSSW (210°)2.3 mphClear
5:50 AM48.2 °F42.8 °F82 %30.42 inWSW (240°)2.3 mphClear
6:20 AM46.4 °F42.8 °F87 %30.42 inVariable2.3 mphClear
6:50 AM46.4 °F42.8 °F87 %30.42 inSouth (190°)3.5 mphClear
7:20 AM48.2 °F42.8 °F82 %30.45 inSSW (200°)3.5 mphClear
7:50 AM48.2 °F42.8 °F82 %30.45 inSW (230°)4.6 mphClear
8:20 AM51.8 °F44.6 °F76 %30.45 inSW (220°)2.3 mphClear
8:50 AM53.6 °F44.6 °F72 %30.45 inSW (230°)3.5 mphClear
9:20 AM57.2 °F46.4 °F67 %30.45 inNW (310°)5.8 mphClear
9:50 AM57.2 °F46.4 °F67 %30.45 inWNW (300°)4.6 mphClear
10:20 AM59.0 °F46.4 °F63 %30.45 inNNW (330°)6.9 mphClear
10:50 AM62.6 °F46.4 °F55 %30.45 inWNW (300°)6.9 mphClear
11:20 AM60.8 °F44.6 °F55 %30.45 inNW (310°)8.1 mphClear
11:50 AM62.6 °F44.6 °F52 %30.45 inWest (270°)10.4 mphClear
12:20 PM64.4 °F46.4 °F52 %30.42 inWest (260°)8.1 mphClear
12:50 PM64.4 °F46.4 °F52 %30.42 inWest (270°)10.4 mphClear
1:20 PM64.4 °F44.6 °F49 %30.42 inWest (280°)9.2 mphClear
1:50 PM66.2 °F46.4 °F49 %30.42 inWNW (290°)8.1 mphClear
2:20 PM66.2 °F46.4 °F49 %30.42 inWNW (290°)9.2 mphClear
2:50 PM68.0 °F44.6 °F43 %30.39 inWest (270°)11.5 mphClear
3:20 PM66.2 °F46.4 °F49 %30.39 inWest (280°)11.5 mphClear
3:50 PM66.2 °F46.4 °F49 %30.39 inWest (260°)10.4 mphClear
4:20 PM66.2 °F46.4 °F49 %30.39 inWSW (240°)8.1 mphClear
4:50 PM66.2 °F48.2 °F52 %30.39 inWest (260°)9.2 mphClear
5:20 PM68.0 °F48.2 °F49 %30.36 inWSW (240°)10.4 mphClear
5:50 PM66.2 °F48.2 °F52 %30.36 inSW (230°)6.9 mphClear
6:20 PM66.2 °F48.2 °F52 %30.36 inWSW (240°)6.9 mphClear
6:50 PM66.2 °F50.0 °F56 %30.36 inWSW (240°)5.8 mphClear
7:20 PM64.4 °F50.0 °F59 %30.36 inWSW (240°)5.8 mphClear
7:50 PM64.4 °F48.2 °F56 %30.36 inWSW (250°)8.1 mphClear
8:20 PM62.6 °F48.2 °F59 %30.36 inWSW (250°)4.6 mphClear
8:50 PM60.8 °F48.2 °F63 %30.36 inWSW (250°)6.9 mphClear
9:20 PM60.8 °F48.2 °F63 %30.36 inWSW (250°)5.8 mphClear
9:50 PM60.8 °F48.2 °F63 %30.36 inWest (280°)8.1 mphClear
10:20 PM59.0 °F48.2 °F67 %30.36 inWSW (250°)8.1 mphClear
10:50 PM57.2 °F48.2 °F72 %30.36 inWSW (250°)6.9 mphClear
11:20 PM57.2 °F48.2 °F72 %30.36 inWest (280°)6.9 mphClear
11:50 PM55.4 °F48.2 °F77 %30.36 inWest (260°)6.9 mphClear
Hourly data recorded from EGKK, located miles away from London, England







STORIES FROM OUR PARTNERS